ORSTED

Satellite information

Favourite Embed

Satellite Type and Status

PAYLOADIN ORBIT

Key statistics

Satellite ORSTED at a glance.

Uptime

9790

Days in orbit

Revolutions

≈ 14.5

Per day

Orbit

SSO

Sun Synchronous Orbit

Inclination

96.5

Latest

Satellite identification and parameters

Extended collection of information and parameters for ORSTED.

Object identification

Identified? True

Debris? False

Object name: ORSTED

International designator: 1999-008B

Object number (NORAD): 25635

Object ID (CCSDS): 25635

Country: DENMARK (DEN)

Current information (Y/N): Y

RCS size: MEDIUM

Orbital parameters

Period: 99.208 minutes

Inclination: 96.4727 deg

SMA: 7098.928 km

Apoapsis: 815.94 km

Periapsis: 625.645 km

RAAN: 290.9956 deg

Eccentricy: 0.01340308

Argument of periapsis: 67.6915 deg

Mean anomaly: 293.8431 deg

Mean motion: 14.5148863 rev/day

Mean motion (dot): 0.00001311 rev/day2

B* drag term: 0.0002988949 1/REarth

Two-line elements (TLE)

Creation date: Dec. 12, 2025, 3:16 a.m.

Reference frame: TEME

Reference center: EARTH

Epoch: Dec. 11, 2025, 8:02 p.m. UTC

TLE line 0: 0 ORSTED

TLE line 1: 1 25635U 99008B 25345.83489090 .00001311 00000-0 29889-3 0 9992

TLE line 2: 2 25635 96.4727 290.9956 0134031 67.6915 293.8431 14.51488630414788

Live tracking on map

Real-time ground track for satellite ORSTED.

In-orbit conjunctions

A list of the most updated potential collisions computed for object ORSTED.

Target Orbit TCA Probability of collision Miss distance Type
SL-14 DEB LEO 2025-08-12 19:40:29 0.0004818692 223.0 (m) DEBRIS
ARIANE 1 DEB SSO 2025-06-06 23:17:04 0.0003170011 935.0 (m) DEBRIS
CZ-6A DEB LEO 2025-05-12 13:35:46 0.0002534606 627.0 (m) DEBRIS
NOAA 16 DEB SSO 2025-03-30 07:43:02 0.0006707502 113.0 (m) DEBRIS
SCOUT G-1 R/B LEO 2025-03-29 18:34:59 0.0001172583 938.0 (m) ROCKET BODY

Associated space launch

ARGOS (Advanced Research & Global Observation Satellite) is a testbed and demonstration program for advanced remote sensing technologies for the US Air Force's Space Test Program (STP). ARGOS's primary objective is to fly and operate advanced payloads that include two technology demonstrations and seven experiment payloads for global and celestial observation. ARGOS also has a goal of three years of on orbit operations to demonstrate and collect science data for the Earth's global environment and top priority military space programs.

ORSTED was lifted into orbit during the mission ‘Delta II | ARGOS’, on board a Delta II space rocket.

The launch took place on Feb. 23, 1999, 10:29 a.m. from Space Launch Complex 2W.

For more information about the launch, click the button.

Launch to space Delta II | ARGOS
Delta II | ARGOS

Agency: N/A

Status: Launch Successful

Launch date: Feb. 23, 1999, 10:29 a.m. UTC

Rocket: Delta II

Launch pad: Space Launch Complex 2W

Location: Vandenberg SFB, CA, USA

...

Latest news about this satellite

There are no fresh news available about this satellite. Check back as we update our databases every day.


Newsletter sign-up

Weekly statistics, charts and insights to help you stay on top of the space industry.